[keps] orb122336.amsat

Ray Hoad ray.hoad at mypbmail.com
Thu Aug 23 21:17:57 PDT 2012


SB KEPS @ AMSAT  $ORB12236.O
Orbital Elements  12236.OSCAR

HR AMSAT ORBITAL ELEMENTS FOR OSCAR SATELLITES
FROM WA5QGD FORT WORTH,TX August 23, 2012
Send SUBSCRIBE KEPS/UNSUBSCRIBE KEPS to majordomo at amsat.org only
BID: ORB12236.O
TO ALL RADIO AMATEURS BT

Satellite: AO-07
Catalog number: 07530
Epoch time:      12235.62333453
Element set:     462
Inclination:      101.4074 deg
RA of node:       230.2806 deg
Eccentricity:    0.0011764
Arg of perigee:   150.9096 deg
Mean anomaly:     209.2634 deg
Mean motion:   12.53590864 rev/day
Decay rate:       -2.7e-07 rev/day^2
Epoch rev:           72837
Checksum:              280

Satellite: FO-29
Catalog number: 24278
Epoch time:      12236.84898560
Element set:     920
Inclination:      098.5862 deg
RA of node:       328.6599 deg
Eccentricity:    0.0350212
Arg of perigee:   214.0142 deg
Mean anomaly:     143.8100 deg
Mean motion:   13.52987067 rev/day
Decay rate:        5.2e-07 rev/day^2
Epoch rev:           79110
Checksum:              315

Satellite: SO-33
Catalog number: 25509
Epoch time:      12235.64685943
Element set:    0307
Inclination:      031.4332 deg
RA of node:       317.5700 deg
Eccentricity:    0.0351918
Arg of perigee:   064.9355 deg
Mean anomaly:     298.7371 deg
Mean motion:   14.28802071 rev/day
Decay rate:       2.18e-06 rev/day^2
Epoch rev:           72216
Checksum:              302

Satellite: RS-22
Catalog number: 27939
Epoch time:      12236.79431604
Element set:     658
Inclination:      097.8082 deg
RA of node:       074.1316 deg
Eccentricity:    0.0014555
Arg of perigee:   053.2730 deg
Mean anomaly:     306.9814 deg
Mean motion:   14.64100345 rev/day
Decay rate:       2.77e-06 rev/day^2
Epoch rev:           47577
Checksum:              312

Satellite: VO-52
Catalog number: 28650
Epoch time:      12235.64792800
Element set:    0189
Inclination:      097.5928 deg
RA of node:       263.3452 deg
Eccentricity:    0.0026245
Arg of perigee:   180.0854 deg
Mean anomaly:     180.0366 deg
Mean motion:   14.83111344 rev/day
Decay rate:       8.91e-06 rev/day^2
Epoch rev:           39482
Checksum:              313

Satellite: HO-68
Catalog number: 36122
Epoch time:      12236.78598189
Element set:     765
Inclination:      100.3547 deg
RA of node:       294.7511 deg
Eccentricity:    0.0007239
Arg of perigee:   317.1201 deg
Mean anomaly:     042.9343 deg
Mean motion:   13.16297551 rev/day
Decay rate:       -4.4e-07 rev/day^2
Epoch rev:           12928
Checksum:              307

/EX
SB KEPS @ AMSAT  $ORB12236.D
Orbital Elements  12236.MICROS

HR AMSAT ORBITAL ELEMENTS FOR THE MICROSATS
FROM WA5QGD FORT WORTH,TX August 23, 2012
Send SUBSCRIBE KEPS/UNSUBSCRIBE KEPS to majordomo at amsat.org only
BID: ORB12236.D
TO ALL RADIO AMATEURS BT

Satellite: UO-11
Catalog number: 14781
Epoch time:      12236.84202552
Element set:     956
Inclination:      097.9487 deg
RA of node:       295.7503 deg
Eccentricity:    0.0009227
Arg of perigee:   166.4177 deg
Mean anomaly:     193.7263 deg
Mean motion:   14.80525979 rev/day
Decay rate:       -1.2e-07 rev/day^2
Epoch rev:           52994
Checksum:              337

Satellite: AO-16
Catalog number: 20439
Epoch time:      12236.86059347
Element set:     541
Inclination:      098.4344 deg
RA of node:       178.3536 deg
Eccentricity:    0.0010615
Arg of perigee:   324.2630 deg
Mean anomaly:     035.7843 deg
Mean motion:   14.32075557 rev/day
Decay rate:        7.5e-07 rev/day^2
Epoch rev:           17968
Checksum:              312

Satellite: LO-19
Catalog number: 20442
Epoch time:      12235.89533376
Element set:     470
Inclination:      098.4000 deg
RA of node:       180.1884 deg
Eccentricity:    0.0011424
Arg of perigee:   317.6840 deg
Mean anomaly:     042.3455 deg
Mean motion:   14.32292306 rev/day
Decay rate:        7.3e-07 rev/day^2
Epoch rev:           17973
Checksum:              285

Satellite: AO-27
Catalog number: 22825
Epoch time:      12236.72192828
Element set:     179
Inclination:      098.5753 deg
RA of node:       178.4983 deg
Eccentricity:    0.0009404
Arg of perigee:   082.2916 deg
Mean anomaly:     277.9335 deg
Mean motion:   14.29478856 rev/day
Decay rate:        5.4e-07 rev/day^2
Epoch rev:           98612
Checksum:              356

Satellite: IO-26
Catalog number: 22826
Epoch time:      12235.87005897
Element set:    0945
Inclination:      098.5714 deg
RA of node:       178.0129 deg
Eccentricity:    0.0009905
Arg of perigee:   077.8796 deg
Mean anomaly:     282.3493 deg
Mean motion:   14.29753838 rev/day
Decay rate:        5.3e-07 rev/day^2
Epoch rev:           98613
Checksum:              359

Satellite: GO-32
Catalog number: 25397
Epoch time:      12235.62038030
Element set:    0856
Inclination:      098.3699 deg
RA of node:       211.0828 deg
Eccentricity:    0.0002252
Arg of perigee:   084.8620 deg
Mean anomaly:     275.2828 deg
Mean motion:   14.23287490 rev/day
Decay rate:       -3.6e-07 rev/day^2
Epoch rev:           73347
Checksum:              309

Satellite: NO-44
Catalog number: 26931
Epoch time:      12235.70346304
Element set:     118
Inclination:      067.0546 deg
RA of node:       308.9058 deg
Eccentricity:    0.0007015
Arg of perigee:   255.4364 deg
Mean anomaly:     104.5960 deg
Mean motion:   14.29822747 rev/day
Decay rate:       1.82e-06 rev/day^2
Epoch rev:           56875
Checksum:              305

Satellite: SO-50
Catalog number: 27607
Epoch time:      12236.68071997
Element set:     845
Inclination:      064.5570 deg
RA of node:       089.5741 deg
Eccentricity:    0.0079082
Arg of perigee:   234.9822 deg
Mean anomaly:     124.3826 deg
Mean motion:   14.72466120 rev/day
Decay rate:        9.9e-07 rev/day^2
Epoch rev:           51990
Checksum:              334

Satellite: CO-55
Catalog number: 27844
Epoch time:      12235.60047698
Element set:     445
Inclination:      098.7044 deg
RA of node:       243.0183 deg
Eccentricity:    0.0010514
Arg of perigee:   035.2197 deg
Mean anomaly:     324.9669 deg
Mean motion:   14.21058373 rev/day
Decay rate:       1.51e-06 rev/day^2
Epoch rev:           47432
Checksum:              302

Satellite: CO-57
Catalog number: 27848
Epoch time:      12235.54540910
Element set:    0397
Inclination:      098.7125 deg
RA of node:       242.3272 deg
Eccentricity:    0.0010515
Arg of perigee:   040.9230 deg
Mean anomaly:     319.2734 deg
Mean motion:   14.20805728 rev/day
Decay rate:       1.34e-06 rev/day^2
Epoch rev:           47425
Checksum:              291

Satellite: AO-51
Catalog number: 28375
Epoch time:      12235.46320363
Element set:    0348
Inclination:      098.1542 deg
RA of node:       197.6807 deg
Eccentricity:    0.0082651
Arg of perigee:   199.9408 deg
Mean anomaly:     159.8540 deg
Mean motion:   14.40977094 rev/day
Decay rate:       1.18e-06 rev/day^2
Epoch rev:           42831
Checksum:              330

Satellite: CP3
Catalog number: 31129
Epoch time:      12235.59911891
Element set:     244
Inclination:      097.8815 deg
RA of node:       239.4730 deg
Eccentricity:    0.0099766
Arg of perigee:   276.8871 deg
Mean anomaly:     082.0990 deg
Mean motion:   14.53173235 rev/day
Decay rate:       4.13e-06 rev/day^2
Epoch rev:           28362
Checksum:              327

Satellite: CO-65
Catalog number: 32785
Epoch time:      12235.63439072
Element set:    0395
Inclination:      097.7917 deg
RA of node:       295.0985 deg
Eccentricity:    0.0014130
Arg of perigee:   199.7885 deg
Mean anomaly:     160.2765 deg
Mean motion:   14.83120564 rev/day
Decay rate:       4.74e-06 rev/day^2
Epoch rev:           23361
Checksum:              335

Satellite: PRISM
Catalog number: 33493
Epoch time:      12236.75256217
Element set:       2
Inclination:      098.1797 deg
RA of node:       018.9720 deg
Eccentricity:    0.0019946
Arg of perigee:   078.7813 deg
Mean anomaly:     281.5640 deg
Mean motion:   14.84180243 rev/day
Decay rate:      1.404e-05 rev/day^2
Epoch rev:           19377
Checksum:              309

Satellite: SOHLA-1
Catalog number: 33496
Epoch time:      12235.87943218
Element set:    0823
Inclination:      098.1083 deg
RA of node:       347.1944 deg
Eccentricity:    0.0006442
Arg of perigee:   179.4633 deg
Mean anomaly:     180.6572 deg
Mean motion:   14.70018448 rev/day
Decay rate:       1.33e-06 rev/day^2
Epoch rev:           19204
Checksum:              303

Satellite: SO-67
Catalog number: 35870
Epoch time:      12236.87574255
Element set:     260
Inclination:      097.2272 deg
RA of node:       270.2455 deg
Eccentricity:    0.0000982
Arg of perigee:   352.7223 deg
Mean anomaly:     119.4886 deg
Mean motion:   15.24295245 rev/day
Decay rate:      2.461e-05 rev/day^2
Epoch rev:           16292
Checksum:              316

Satellite: TISAT-1
Catalog number: 36799
Epoch time:      12236.72038508
Element set:     277
Inclination:      098.0590 deg
RA of node:       313.5441 deg
Eccentricity:    0.0013854
Arg of perigee:   317.9846 deg
Mean anomaly:     042.0307 deg
Mean motion:   14.82149561 rev/day
Decay rate:       8.63e-06 rev/day^2
Epoch rev:           11449
Checksum:              312

Satellite: STUDSAT
Catalog number: 36801
Epoch time:      12235.93219043
Element set:    0475
Inclination:      098.0706 deg
RA of node:       313.7784 deg
Eccentricity:    0.0011574
Arg of perigee:   304.4525 deg
Mean anomaly:     055.5587 deg
Mean motion:   14.84847153 rev/day
Decay rate:      2.612e-05 rev/day^2
Epoch rev:           11442
Checksum:              293

Satellite: FO-69
Catalog number: 37227
Epoch time:      12236.28802780
Element set:    0263
Inclination:      071.9704 deg
RA of node:       163.8824 deg
Eccentricity:    0.0017788
Arg of perigee:   199.8949 deg
Mean anomaly:     160.1525 deg
Mean motion:   14.77138948 rev/day
Decay rate:       2.09e-06 rev/day^2
Epoch rev:           04600
Checksum:              339

